Location: Bord�res
(43.2000°N, 0.2167°W)
Time: 11:24:35
(UTC+00:00)

Okean 3 - Pass Details

Date: 03 March 2021
Orbit: 576 x 600 km, 82.5° (Epoch: 21 April)

Event Time Altitude Azimuth Distance (km) Brightness Sun altitude
Rises 20:13:40 0° 348° (NNW) 2,833 7.3 -26.2°
Reaches altitude 10° 20:15:53 10° 345° (NNW) 1,931 6.5 -26.6°
Enters shadow 20:19:19 51° 313° (NW) 753 4.2 -27.2°
